Date,TemperatureHighF,TemperatureAvgF,TemperatureLowF,DewpointHighF,DewpointAvgF,DewpointLowF,HumidityHigh,HumidityAvg,HumidityLow,PressureMaxIn,PressureMinIn,WindSpeedMaxMPH,WindSpeedAvgMPH,GustSpeedMaxMPH,PrecipitationSumIn
2013-1-1,57.1,43.2,33.8,44.4,34.8,30.4,96,76,36,30.28,30.18,10,2,17,0.00
2013-1-2,54.4,42.3,31.8,38.4,34.0,28.0,93,74,51,30.24,30.12,13,4,15,0.00
2013-1-3,55.9,41.2,30.4,41.9,34.6,28.3,94,79,53,30.27,30.16,8,2,11,0.00
2013-1-4,56.7,43.8,34.1,43.7,36.9,31.4,94,78,55,30.29,30.16,9,2,11,0.00
2013-1-5,49.9,43.5,35.2,45.3,40.5,32.2,95,90,79,30.25,30.05,3,3,0,0.18
2013-1-6,58.1,48.2,40.4,48.5,44.2,37.9,96,87,63,30.18,30.04,7,2,9,0.00
2013-1-7,64.8,47.6,37.2,53.9,43.0,35.6,97,85,61,30.25,30.13,7,1,9,0.01
2013-1-8,61.7,47.1,38.5,50.2,43.0,36.7,96,86,66,30.24,30.12,10,2,11,0.00
2013-1-9,54.1,44.8,39.1,51.4,41.6,34.8,98,89,76,30.15,29.97,2,2,0,0.00
2013-1-10,53.8,42.5,34.4,39.4,34.0,31.7,93,74,45,30.19,30.06,15,2,17,0.00
2013-1-11,56.5,43.1,35.9,43.2,36.4,31.0,88,78,58,30.25,30.10,12,0,16,0.00
2013-1-12,53.8,41.5,30.5,40.2,32.5,26.5,93,73,45,30.25,30.12,6,0,7,0.00
2013-1-13,55.9,39.6,26.5,38.1,29.2,15.1,92,70,27,30.27,30.16,6,0,7,0.00
2013-1-14,57.9,43.9,30.9,34.3,25.7,15.0,83,52,26,30.39,30.20,6,1,7,0.00
2013-1-15,52.9,40.0,29.9,39.0,31.9,27.1,92,75,47,30.48,30.38,9,2,12,0.00
2013-1-16,59.5,41.5,29.8,40.3,33.4,26.8,92,75,46,30.44,30.26,5,2,7,0.00
2013-1-17,60.2,43.1,30.3,42.8,35.1,27.9,99,76,47,30.27,30.13,11,1,13,0.00
2013-1-18,60.9,44.1,31.3,44.0,35.6,28.9,95,74,49,30.23,30.12,14,2,14,0.00
2013-1-19,61.5,45.1,31.0,43.6,35.9,28.5,94,73,46,30.24,30.14,13,2,14,0.00
2013-1-20,62.1,44.4,31.0,42.3,34.3,28.4,93,71,40,30.23,30.11,14,3,15,0.00
2013-1-21,62.2,45.5,29.9,44.2,36.5,27.4,96,73,46,30.17,30.07,14,4,14,0.00
2013-1-22,60.8,48.8,34.0,43.6,39.4,31.3,94,72,49,30.11,29.97,13,5,14,0.00
2013-1-23,53.0,51.0,49.2,49.1,45.6,42.1,95,83,69,30.08,29.94,3,3,0,0.27
2013-1-24,59.8,52.6,48.6,53.9,50.2,47.2,96,92,80,30.18,30.06,7,3,9,0.00
2013-1-25,65.3,55.3,50.0,57.9,51.6,48.0,97,88,73,30.18,30.02,7,2,10,0.01
2013-1-26,60.9,51.8,42.7,51.0,45.7,38.1,95,81,57,30.06,29.95,14,1,14,0.00
2013-1-27,60.0,46.1,36.1,43.4,38.2,33.4,92,76,45,30.17,30.05,10,1,13,0.00
2013-1-28,61.2,47.9,38.7,46.7,40.1,34.8,89,76,48,30.28,30.15,15,2,17,0.00
2013-1-29,64.8,49.8,39.4,48.4,42.4,35.7,91,77,50,30.35,30.25,10,1,12,0.00
2013-1-30,70.6,52.2,38.8,52.9,43.4,35.9,93,74,44,30.33,30.23,5,0,5,0.00
2013-1-31,65.7,48.9,36.3,48.5,41.6,33.9,94,78,53,30.29,30.16,9,2,12,0.00